Wind_Speed
4 4 5 5 6 6 6 5 6 6 7 7 7 7 7 6 6 6 6 8 8 8 8 9 9 10 10 10 10 10 10 10 11 11 11 12 12 12 13 13 13 14 14
4 4 5 6 7 7 7 6 6 7 7 8 8 8 8 7 8 8 8 9 9 9 9 10 10 10 11 10 10 11 11 11 11 12 12 12 13 13 13 13 13 13 14
4 4 5 6 7 8 8 7 7 8 8 8 8 9 8 9 8 8 9 9 9 9 9 10 10 11 11 11 12 12 13 13 13 13 13 13 14 13 14 14 14 14 14
5 5 6 6 7 8 9 9 8 8 8 9 9 9 9 8 8 8 9 10 10 10 10 11 12 12 12 13 14 14 15 14 15 14 14 14 14 15 15 15 15 15 15
5 6 6 7 8 9 10 9 9 9 9 10 10 10 10 10 10 10 10 10 10 11 11 11 12 13 13 14 14 15 15 16 16 15 14 14 14 15 15 16 17 17 16
7 8 8 9 9 10 10 10 10 11 11 11 12 12 12 12 12 12 12 12 11 12 12 12 13 13 14 14 15 15 16 16 17 16 15 15 16 16 16 16 17 17 17
9 9 10 10 10 11 11 12 12 12 12 12 13 13 13 14 14 13 13 13 13 13 14 14 15 15 15 15 15 16 16 16 17 17 17 17 17 17 17 17 17 17 19
10 11 11 11 12 12 12 13 13 13 13 13 13 13 14 14 15 15 15 15 15 15 16 16 16 16 15 16 17 16 16 17 17 18 18 19 19 19 19 18 18 18 19
11 11 12 12 13 13 14 14 14 14 15 15 15 14 14 14 15 16 17 17 16 16 17 17 17 17 17 17 17 17 17 18 19 19 20 20 21 21 20 20 19 19 19
11 12 12 12 13 14 15 15 15 15 15 16 16 16 15 16 16 16 17 17 17 17 17 18 18 18 18 17 18 17 18 19 19 20 21 21 22 22 22 21 21 22 21
12 12 12 13 13 14 15 15 16 16 16 17 17 17 17 18 18 18 18 18 18 18 18 18 18 19 19 19 19 19 19 20 20 21 21 21 22 23 22 22 22 22 22
12 13 14 14 15 15 16 16 17 17 18 18 18 19 20 20 20 19 19 19 19 18 19 19 20 20 21 21 20 20 20 20 21 22 22 23 23 23 23 22 22 22 22
15 15 15 16 16 16 17 18 19 18 19 19 19 20 21 21 20 20 20 20 20 20 21 21 21 21 21 22 22 22 21 22 22 22 23 24 24 25 24 23 23 23 23
16 17 17 18 18 18 19 19 20 20 21 21 21 21 22 22 21 21 21 21 20 21 22 22 22 23 23 23 23 23 23 23 23 23 23 24 25 25 26 25 24 24 23
17 18 18 19 19 20 20 20 20 21 21 22 22 22 22 23 23 23 23 23 23 22 22 23 23 24 24 24 24 24 24 24 24 24 24 24 24 24 25 25 25 25 24
18 19 19 20 21 21 21 21 22 22 22 23 23 23 23 24 25 24 24 24 24 24 24 24 24 25 25 25 25 25 25 25 24 24 24 23 23 24 24 25 25 26 25
20 21 21 21 22 22 22 23 23 23 24 24 24 24 24 24 25 25 25 25 25 25 25 25 25 25 26 26 26 25 25 25 25 25 24 24 24 24 24 24 25 25 25
21 22 22 22 23 24 24 25 24 25 24 24 24 24 24 25 25 25 26 26 26 26 26 26 26 26 27 26 26 25 25 25 26 25 25 25 24 23 24 23 23 24 25
23 23 23 24 25 25 25 25 24 24 24 24 25 25 25 25 26 26 27 27 27 28 28 27 27 27 27 27 26 26 26 27 26 25 25 24 23 23 23 24 24 24 25
24 25 24 24 25 25 25 24 24 24 25 25 26 26 26 26 27 27 28 28 29 29 29 29 29 29 28 27 26 26 27 26 26 25 24 24 23 23 23 24 25 25 25
26 25 25 26 27 26 26 26 25 25 25 26 27 27 28 28 28 29 29 30 30 31 30 30 29 29 28 27 26 26 26 26 26 25 24 25 24 24 24 24 25 25 25
27 26 27 28 28 27 27 27 27 27 27 28 29 29 29 30 30 30 31 31 31 31 30 30 30 29 28 28 27 27 26 26 26 25 25 25 25 25 24 24 25 25 24
28 28 29 29 29 29 29 29 29 29 29 29 29 29 30 31 31 32 32 32 32 31 31 31 30 30 29 27 27 26 26 26 26 25 25 25 25 25 24 24 23 23 24
29 30 30 30 30 30 30 30 30 30 31 31 31 31 31 31 32 32 33 34 33 32 32 31 31 30 29 28 28 27 26 26 26 25 25 26 25 25 25 24 24 23 23
30 30 31 31 31 31 31 31 31 31 31 32 32 32 32 32 32 33 33 33 33 32 32 31 31 29 28 28 27 26 26 25 26 26 25 26 26 25 25 24 23 23 22
31 31 31 32 32 32 32 32 32 32 32 33 33 34 33 33 33 33 33 32 31 31 30 30 30 29 29 28 26 25 26 26 26 26 25 25 25 25 24 23 23 23 23
Wind_Direction
0 357 354 349 347 344 336 328 322 320 321 312 307 303 304 304 303 291 290 286 281 277 275 275 274 277 279 279 281 276 275 272 272 271 267 265 265 265 267 269 272 272 273
342 341 351 351 348 348 345 337 326 322 320 321 314 305 304 305 307 299 292 289 290 286 282 277 275 281 280 279 281 278 274 272 271 271 271 271 271 268 267 270 272 273 271
342 341 344 342 339 340 342 335 327 325 321 318 315 310 303 298 303 302 296 294 295 296 293 284 278 278 280 278 279 277 274 272 271 272 273 272 269 269 271 270 270 270 270
336 336 336 334 331 331 328 328 323 323 321 317 315 313 311 309 307 305 300 299 297 295 293 286 279 276 276 277 277 276 276 273 273 274 275 274 274 273 274 273 271 270 269
317 318 318 318 320 320 320 319 313 309 308 307 307 306 305 301 299 300 300 300 298 295 292 288 280 275 275 276 274 275 276 273 271 272 274 275 276 276 275 276 273 271 270
311 309 307 307 310 314 316 316 312 309 304 301 301 301 299 294 293 295 295 295 294 290 288 287 282 276 276 275 274 275 273 273 271 271 273 276 277 276 277 278 276 272 270
307 305 305 304 304 307 310 311 310 307 305 301 299 298 298 293 290 291 291 290 286 287 287 284 284 282 275 275 277 275 274 272 270 270 271 274 275 276 275 279 278 274 272
301 300 301 302 300 302 305 306 306 304 304 303 298 294 294 292 292 292 291 291 287 284 283 283 285 287 279 273 274 275 273 273 271 271 271 272 272 273 274 277 277 276 275
304 301 300 298 298 299 299 300 302 302 302 301 299 297 296 292 289 289 289 288 288 285 279 280 282 286 283 277 275 276 278 276 274 272 274 273 273 273 273 273 275 275 276
303 302 299 300 300 299 296 296 298 299 299 298 296 297 299 296 293 289 288 286 285 284 282 281 282 283 282 280 280 278 279 282 279 276 276 275 273 273 272 273 274 274 275
305 303 301 302 302 302 300 299 298 297 296 295 293 294 297 299 295 290 289 286 286 284 280 280 281 281 279 280 278 278 280 280 280 279 277 275 272 271 271 273 276 276 276
305 303 299 297 299 300 299 299 298 296 296 298 297 297 297 297 295 293 292 288 286 285 280 280 281 283 282 280 278 280 281 282 281 281 280 277 274 271 270 273 274 275 275
303 303 301 298 298 299 298 298 299 296 297 298 298 297 296 296 295 294 292 288 285 284 282 283 284 283 284 281 279 279 281 282 283 282 281 278 276 273 272 274 276 276 275
304 304 302 301 299 299 296 297 298 298 298 297 296 295 294 294 295 295 292 289 286 286 285 285 283 282 283 284 282 280 280 281 282 282 281 279 277 274 273 274 275 275 274
307 305 304 302 301 300 299 298 298 297 296 295 294 294 293 293 293 292 292 290 290 289 286 284 284 283 283 282 282 280 278 279 282 282 282 280 276 273 273 273 273 273 273
305 306 304 302 300 300 300 299 297 297 295 295 296 295 294 294 292 291 292 291 292 293 292 288 286 286 285 283 283 281 277 276 279 281 279 278 276 273 272 273 274 273 271
304 304 304 302 300 299 300 299 298 296 295 295 295 293 292 293 293 291 291 292 291 292 292 291 288 286 285 284 285 283 278 276 277 278 277 278 278 276 273 272 272 272 271
303 303 302 301 300 300 300 300 299 296 296 296 295 293 293 292 293 291 291 291 291 290 290 289 288 286 284 283 283 281 278 278 277 276 276 277 277 277 276 273 271 272 270
300 300 299 300 300 301 301 301 300 298 297 297 297 296 295 293 292 292 291 290 289 288 288 287 286 285 284 282 280 280 279 278 276 275 274 274 276 277 276 274 272 271 270
300 300 300 301 301 301 302 300 299 298 297 296 296 295 294 293 293 293 293 290 289 288 289 287 286 284 283 281 279 278 278 276 275 275 274 274 275 275 275 275 274 272 272
299 302 303 302 302 301 301 299 298 297 296 295 294 294 293 293 293 293 292 293 291 289 290 287 286 283 282 282 281 278 276 275 274 274 275 274 273 274 275 276 275 273 271
300 302 302 301 301 301 300 300 299 297 296 295 294 294 293 293 293 293 292 293 293 291 289 288 287 286 284 282 279 276 274 275 274 272 273 274 273 272 272 275 274 270 269
301 302 301 300 299 299 298 298 299 297 296 296 295 294 295 294 293 293 292 292 292 290 288 287 286 287 284 282 278 276 274 274 274 272 272 273 273 273 273 273 274 270 269
300 301 301 299 299 299 298 298 297 296 295 296 296 296 296 295 294 293 291 291 289 288 287 285 285 284 282 280 277 274 272 274 273 271 269 270 270 271 274 274 272 271 269
300 300 300 299 299 299 298 298 298 297 296 295 295 295 294 292 293 293 292 291 288 286 284 284 283 281 279 278 276 273 271 273 272 270 269 269 269 271 271 271 270 270 269
298 299 299 299 299 299 299 298 298 298 298 297 295 295 294 293 293 293 292 291 288 285 284 282 280 278 276 275 275 273 271 271 270 268 268 268 269 270 268 267 268 269 269
Height
5895 5895 5894 5893 5892 5891 5890 5889 5888 5887 5886 5885 5884 5882 5881 5880 5879 5879 5879 5878 5877 5877 5876 5876 5876 5875 5874 5874 5873 5872 5872 5871 5871 5871 5870 5870 5870 5870 5869 5869 5869 5868 5868
5894 5894 5893 5892 5891 5890 5889 5888 5887 5886 5885 5884 5883 5881 5880 5879 5878 5878 5877 5876 5875 5874 5874 5873 5873 5872 5872 5871 5870 5870 5869 5868 5868 5868 5867 5867 5866 5866 5866 5865 5865 5865 5864
5893 5893 5892 5891 5890 5889 5888 5887 5885 5884 5883 5882 5881 5880 5879 5878 5877 5876 5875 5874 5873 5872 5871 5870 5870 5869 5868 5868 5867 5866 5866 5865 5865 5864 5864 5863 5862 5862 5862 5862 5861 5861 5860
5892 5892 5891 5890 5889 5887 5886 5885 5884 5883 5882 5880 5879 5878 5877 5876 5875 5874 5873 5871 5870 5869 5868 5867 5866 5866 5865 5864 5863 5863 5862 5861 5861 5860 5860 5859 5859 5858 5858 5857 5857 5857 5856
5891 5890 5889 5888 5887 5886 5885 5883 5882 5881 5880 5878 5877 5876 5875 5873 5872 5871 5870 5869 5867 5866 5865 5864 5862 5862 5860 5860 5859 5858 5858 5857 5857 5856 5856 5855 5854 5854 5853 5853 5852 5852 5852
5889 5888 5887 5886 5885 5884 5882 5881 5879 5878 5877 5876 5874 5873 5872 5870 5869 5868 5867 5866 5864 5863 5862 5860 5859 5858 5857 5855 5854 5854 5853 5853 5852 5852 5851 5851 5850 5849 5849 5848 5847 5847 5847
5886 5885 5884 5883 5882 5881 5879 5878 5877 5875 5874 5873 5871 5870 5869 5867 5866 5865 5864 5862 5861 5859 5858 5857 5855 5854 5852 5851 5850 5849 5849 5848 5847 5847 5846 5846 5845 5844 5844 5843 5842 5842 5841
5884 5883 5881 5880 5879 5878 5876 5875 5874 5872 5871 5869 5868 5867 5866 5864 5862 5860 5859 5858 5856 5855 5853 5852 5851 5849 5848 5847 5846 5845 5843 5843 5842 5842 5841 5841 5840 5839 5838 5838 5837 5836 5836
5881 5880 5878 5877 5876 5875 5873 5872 5870 5869 5867 5865 5864 5863 5861 5860 5858 5857 5855 5853 5852 5850 5849 5848 5846 5844 5843 5842 5841 5840 5838 5837 5837 5837 5836 5835 5834 5833 5833 5832 5832 5831 5830
5878 5876 5875 5874 5872 5871 5869 5868 5866 5864 5863 5861 5859 5858 5856 5855 5853 5852 5851 5848 5847 5845 5844 5843 5841 5840 5839 5838 5836 5835 5834 5832 5832 5831 5830 5829 5828 5827 5827 5826 5826 5825 5824
5875 5873 5872 5870 5869 5867 5865 5864 5862 5860 5858 5857 5855 5853 5852 5850 5848 5847 5846 5844 5841 5840 5839 5837 5836 5835 5834 5832 5831 5830 5829 5827 5826 5825 5824 5823 5822 5821 5821 5820 5820 5819 5818
5872 5870 5868 5866 5865 5863 5861 5859 5857 5856 5854 5852 5850 5848 5846 5845 5843 5841 5840 5838 5836 5835 5833 5832 5830 5829 5828 5827 5825 5824 5823 5822 5820 5819 5818 5817 5816 5815 5814 5814 5813 5812 5812
5868 5866 5864 5862 5860 5859 5857 5855 5853 5851 5849 5847 5845 5843 5841 5839 5837 5835 5833 5832 5830 5829 5827 5826 5824 5823 5822 5821 5819 5818 5816 5815 5814 5812 5811 5810 5809 5808 5807 5807 5807 5806 5805
5865 5863 5861 5858 5856 5854 5852 5850 5848 5846 5843 5841 5839 5837 5835 5833 5831 5829 5827 5826 5824 5823 5822 5820 5818 5816 5815 5814 5813 5811 5810 5808 5807 5806 5804 5803 5802 5801 5800 5800 5800 5799 5798
5861 5859 5856 5854 5852 5849 5846 5844 5842 5840 5838 5835 5833 5831 5829 5827 5825 5823 5821 5819 5818 5816 5815 5813 5811 5810 5808 5807 5805 5804 5803 5801 5800 5798 5797 5796 5794 5794 5794 5793 5792 5792 5791
5857 5854 5852 5849 5847 5844 5841 5839 5836 5834 5831 5829 5827 5825 5823 5820 5818 5816 5814 5812 5810 5809 5807 5806 5804 5802 5801 5799 5798 5797 5795 5794 5792 5791 5790 5789 5787 5787 5786 5785 5785 5784 5783
5852 5849 5847 5844 5842 5839 5836 5833 5830 5828 5825 5822 5820 5818 5816 5813 5811 5809 5807 5805 5803 5801 5800 5798 5796 5794 5793 5792 5790 5788 5787 5786 5785 5784 5782 5781 5780 5779 5779 5778 5777 5776 5776
5847 5844 5842 5839 5836 5833 5830 5827 5824 5821 5818 5816 5813 5811 5809 5806 5804 5802 5799 5798 5796 5794 5792 5790 5788 5786 5785 5783 5782 5780 5779 5778 5777 5776 5775 5774 5773 5772 5771 5770 5769 5769 5768
5840 5838 5836 5833 5830 5827 5824 5821 5818 5815 5812 5809 5806 5804 5801 5799 5797 5794 5792 5790 5788 5786 5784 5782 5780 5778 5777 5775 5774 5772 5771 5770 5769 5768 5767 5767 5766 5765 5764 5763 5762 5761 5761
5834 5832 5830 5827 5823 5820 5817 5814 5811 5808 5806 5803 5800 5797 5794 5792 5789 5787 5784 5782 5780 5777 5775 5773 5772 5770 5768 5767 5766 5764 5763 5762 5761 5760 5760 5759 5758 5757 5757 5756 5755 5754 5754
5828 5825 5822 5819 5816 5813 5810 5807 5804 5801 5798 5796 5793 5790 5787 5784 5781 5779 5776 5774 5771 5769 5767 5765 5763 5761 5760 5759 5757 5756 5755 5753 5753 5752 5752 5751 5751 5750 5749 5748 5748 5747 5746
5821 5819 5815 5812 5809 5806 5802 5799 5796 5793 5791 5788 5785 5782 5779 5776 5773 5771 5768 5765 5763 5760 5758 5756 5755 5753 5751 5750 5748 5747 5746 5745 5745 5745 5744 5743 5743 5742 5742 5741 5740 5739 5739
5814 5811 5808 5805 5801 5798 5795 5792 5789 5786 5783 5780 5777 5773 5770 5767 5764 5762 5759 5757 5754 5752 5750 5748 5746 5744 5742 5741 5740 5739 5738 5737 5737 5736 5736 5736 5735 5734 5734 5733 5733 5732 5732
5806 5803 5800 5797 5793 5790 5787 5784 5780 5777 5774 5771 5768 5764 5761 5758 5755 5753 5750 5747 5745 5743 5741 5739 5737 5735 5733 5732 5731 5730 5729 5729 5729 5728 5728 5728 5727 5727 5726 5726 5726 5725 5725
5798 5795 5792 5788 5785 5781 5778 5775 5772 5768 5765 5762 5758 5755 5752 5749 5746 5743 5740 5738 5736 5733 5731 5729 5727 5726 5724 5723 5722 5721 5721 5721 5721 5720 5720 5720 5720 5719 5719 5719 5719 5718 5718
5790 5787 5784 5780 5776 5773 5769 5766 5763 5759 5756 5753 5749 5746 5743 5740 5736 5733 5730 5728 5725 5723 5721 5719 5718 5717 5716 5714 5714 5713 5713 5713 5713 5712 5711 5712 5712 5712 5712 5712 5712 5711 5711